Погода в Уфе

Погода в Уфе : погода сейчас, прогноз погоды и архив. Всё, что Вы хотите узнать о погоде в Уфе!

Хотите узнать прогноз погоды в Уфе? Тогда Вам сюда: Погода в Уфе

Поиск расширенной информации на нашем сайте:

Другие новости

Новости СМИ2

Главная страница сайта

Новости сайта

03.07.2017

Напоминаем, что на нашем специализированном сайте Метеоцентр.Азия вы можете получить высокодетализированные автоматические прогнозы погоды по пунктам России, СНГ и мира в авиационном формате (включающие направление и скорость ветра, видимость, явления погоды, количество и форму облачности, нижнюю и верхнюю границу облачности).


Погода в Уфе - сегодня

Время (UTC), дата Ветер
(°,м/с) 
Видим.   Явления Облачность Т
(°С)
Тd
(°С)
f(%) Тe
(°С)
Pmin
(гПа)
dP
(гПа)
Po
(мм)
O2
(г/м3)
Тmin Tmax R s Состояние
почвы
03 17.05.18 020 (С) 10 км    9/9 1000 м 
[Sc]
+8.1 +1 61 +9  1019.3  0.4  755  295  +1.3        влажная 
06 17.05.18 170 (Ю) 10 км    10/10 1000 м 
[Sc]
+12.2 -0 43 +13  1018.5  -0.6  754  291           
09 17.05.18 160 (Ю) 10 км    9/9 1000 м 
[Sc]
+17.6 -1.6 27 +18  1017.4  -0.8  754  285           
12 17.05.18 210 (ЮЗ) 10 км    6/3 1000 м средняя 
[Cu Sc|Ac trans]
+20 +4.2 35 +20  1015.6  -1.7  752  282           
18 17.05.18 250 (З) 10 км    3/0 верхняя 
[Ci fib]
+9.8 +6.3 79 +11  1015.7  0.4  752  292           
21 17.05.18 250 (З) 10 км    ясно 
+6.5 +4.4 86 +7  1015.7  0.1  752  295           
00 18.05.18 230 (ЮЗ) 10 км    3/0 средняя 
[Ac trans]
+5.1 +3.3 88 +5  1015.5  -0.3  752  297           
03 18.05.18 140 (ЮВ) 10 км    4/0 средняя, верхняя 
[Ac trans|Ci fib]
+12.1 +6.5 69 +13  1015.1  752  289  +4.8        влажная 
06 18.05.18 160 (Ю) 10 км    9/1 1000 м средняя, верхняя 
[Cu med, cong|Ac trans|Ci fib]
+20.8 +7.6 42 +21  1014.1  -0.6  751  280           
09 18.05.18 050 (СВ) 10 км    9/1 1000 м верхняя 
[Cu med, cong|Ci fib]
+24.5 +7.4 33 +25  1013.4  -0.5  751  277           
12 18.05.18 220 (ЮЗ) 1{11}  10 км  в посл. час гроза  9/3 600 м кучево-дожд., верхняя 
[Cb cap|Ci fib]
+24.8 +9.3 37 +25  1013  -0.3  751  276           
15 18.05.18 190 (Ю) 10 км  {гроза}  9/6 1000 м средняя, верхняя 
[Sc|Ac trans|Ci fib]
+20.8 +10.7 52 +23  1013.2  751  279    +25.8       
18 18.05.18 250 (З) 10 км  гроза без осадков  9/6 600 м кучево-дожд., средняя 
[Cb cap|Ac trans]
+18 +12.6 71 +24  1014.7  1.4  752  282           
21 18.05.18 170 (Ю) 10 км  в посл. час ливневой дождь{гроза}  8/4 1000 м средняя 
[Sc|Ac trans]
+15.8 +13.1 84 +23  1014.3  -0.5  751  284           
00 19.05.18 180 (Ю) 4000 м  гроза, ливневой дождь  10/10 600 м кучево-дожд. 
[Cb cap]
+14.6 +13 90 +19  1013.5  -0.9  751  285           
03 19.05.18 160 (Ю) 4000 м  слаб. ливневой дождь{гроза}  9/9 600 м кучево-дожд. 
[Cb cap]
+14.8 +13.2 90 +22  1015.5  1.9  752  285  +14.3      мокрая 
06 19.05.18 140 (ЮВ) 10 км  {гроза, ливн. осадки}  9/6 1000 м средняя, верхняя 
[Sc|Ac trans|Ci fib]
+17.3 +13.4 78 +24  1014.7  1.9  752  282  +13.8         
09 19.05.18 140 (ЮВ) 10 км    9/3 1000 м средняя, верхняя 
[Sc|Ac trans|Ci fib]
+21.1 +14.3 65 +29  1014.4  0.1  752  278           
12 19.05.18 170 (Ю) 4{10}  10 км    8/0 средняя, верхняя 
[Ac trans|Ci fib]
+25.6 +12.7 45 +31  1012.3  -1.9  750  274           
15 19.05.18 130 (ЮВ) 10 км    9/6 600 м кучево-дожд., средняя, верхняя 
[Cb cap|Ac trans|Ci fib]
+20.7 +10.3 51 +22  1011.7  -0.7  750  279    +26  0.3     
18 19.05.18 180 (Ю) 10 км  {гроза}  3/0 верхняя 
[Ci fib]
+21.3 +11.8 55 +25  1011.2  -0.5  749  278           
21 19.05.18 200 (Ю) 10 км    9/0 верхняя 
[Ci fib]
+18.9 +9.1 53 +20  1011.8  0.5  750  281           
00 20.05.18 220 (ЮЗ) 1{11}  10 км  {гроза, ливн. осадки}  6/3 1000 м средняя, верхняя 
[Sc|Ac trans|Ci fib]
+14.8 +10 73 +17  1012.2  0.2  750  285           
03 20.05.18 180 (Ю) 10 км    9/6 600 м кучево-дожд., средняя, верхняя 
[Cb cap|Ac trans|Ci fib]
+18.8 +11 60 +22  1011.4  -0.6  749  280  +12.9      мокрая 
06 20.05.18 170 (Ю) 2{14}  10 км  гроза без осадков{ливн. осадки}  8/6 600 м кучево-дожд., средняя, верхняя 
[Cb cap|Ac trans|Ci fib]
+18 +14.3 79 +27  1011.5  749  280           
Время (UTC), дата Ветер
(°,м/с) 
Видим.   Явления Облачность Т
(°С)
Тd
(°С)
f(%) Тe
(°С)
Pmin
(гПа)
dP
(гПа)
Po
(мм)
O2
(г/м3)
Тmin Tmax R s Состояние
почвы

Для получения пояснительной информации подведите курсор к названию столбца.

ПОГОДА в Уфе - архив

Всё, что Вы хотите узнать о погоде в Уфе - удобно и подробно!

Выберите нужную дату (начиная с 1 января 2015* года) и нажмите кнопку "Найти".
Будут отображены архивные сводки погоды по пункту Уфа, начиная с указанной даты.


Отображать данные в формате CSV (для использования в таблицах Excel)


Внимание! Наш архив погоды предназначен исключительно для личного некоммерческого использования в познавательных целях. Если Вам необходимы официальные справки о состоянии погоды (для производственных, юридических, коммерческих и т.п. целей), обращайтесь в органы Росгидромета.

*Примечание: данная дата относится к архиву по метеостанциям СССР (Россия, СНГ, Балтия).
Архив по метеостанциям Зарубежной Европы и Азии (кроме Китая) хранится 10 дней, по другим регионам земного шара (Китай, Африка, Америка, Австралия, Океания) - 1 день.

Уфа - район местоположения метеостанции


Название, широта, долгота, высота метеостанции:
Уфа (город) 54.7°ш. 55.8°д. 104 м над ур. моря [Российская Федерация]

Дополнительная информация

В oтличие oт бoльшинства пoгoдных сайтoв мы публикуем пoдрoбную метеoинфoрмацию в детальнoм прoфессиoнальнoм фoрмате.

Характеристики температуры и влажнoсти вoздуха измеряются на высoте 2 м в тени вдали oт зданий и деревьев.
Скoрoсть ветра измеряется на высoте 10 м (на урoвне рoста челoвека скoрoсть ветра ниже в 1.5-2 раза). Если метеoстанция нахoдится в гoрoде или в лесу, тo скoрoсть ветра занижена на 2-4 м/с пo сравнению с oткрытым местoм. Скoрoсть ветра над акватoриями крупных рек и oзёр, а также на вершинах хoлмoв на 2-5 м/с выше, чем в oбычных услoвиях.
Атмoсфернoе давление в разных тoчках местнoсти мoжет значительнo oтличаться oт давления на метеoстанции, в зависимoсти oт услoвий рельефа (при пoдъёме на 10 м давление пoнижается примернo на 1 мм рт.ст.).